Location: Mantua Corners
(41.3103°N, 81.2212°W)
Time: 01:42:29
(UTC+00:00)

ACS3 Solar Sail - Pass Details

Date: 09 October 2024
Orbit: 961 x 1022 km, 97.5° (Epoch: 03 November)

Event Time Altitude Azimuth Distance (km) Brightness Sun altitude
Exits shadow 03:00:01 16° 267° (W) 2,383 4.1 -44.4°
Maximum altitude 03:00:33 16° 273° (W) 2,375 4.1 -44.5°
Drops below altitude 10° 03:04:25 10° 310° (NW) 2,833 4.8 -45.0°
Sets 03:08:04 0° 331° (NNW) 3,794 5.6 -45.5°
